When you browse on this site, cookies collect data to enhance your experience and personalize the content and advertising you see.
Visit our Privacy Policy to learn more. By continuing to use the site, you agree to this use of cookies and data.
  • In Hungary
  • List of Countries
  • For 7 days
  • Water Temperature
  • Weather Map
  • News
  • Weather Widgets
  • user-avatar
    Login

    Hourly Weather Kyzylzhar (Saryagashskiy rayon)

    Today, 11 December, Wednesday

    Time Temperature Precipitation Wind Pressure Humidity
    00:00 +9°C° 0 mm 1 mps 724 mmHg 78%
    01:00 +9°C° 0 mm 1 mps 723 mmHg 79%
    02:00 +9°C° 0 mm 1 mps 723 mmHg 80%
    03:00 +9°C° 0 mm 1 mps 723 mmHg 79%
    04:00 +9°C° 0 mm 1 mps 723 mmHg 78%
    05:00 +7°C° 0 mm 2 mps 723 mmHg 76%
    06:00 +8°C° 0 mm 1 mps 723 mmHg 74%
    07:00 +8°C° 0 mm 1 mps 723 mmHg 72%
    08:00 +8°C° 0 mm 1 mps 723 mmHg 70%
    09:00 +9°C° 0 mm 1 mps 723 mmHg 67%
    10:00 +10°C° 0 mm 1 mps 723 mmHg 63%
    11:00 +10°C° 0 mm 0 mps 723 mmHg 60%
    12:00 +12°C° 0 mm 1 mps 723 mmHg 59%
    13:00 +12°C° 0 mm 1 mps 722 mmHg 59%
    14:00 +12°C° 0 mm 1 mps 722 mmHg 58%
    15:00 +12°C° 0 mm 1 mps 722 mmHg 62%
    16:00 +11°C° 0 mm 1 mps 722 mmHg 65%
    17:00 +10°C° 0 mm 1 mps 722 mmHg 69%
    18:00 +10°C° 0 mm 1 mps 722 mmHg 71%
    19:00 +9°C° 0 mm 1 mps 722 mmHg 73%
    20:00 +9°C° 0 mm 1 mps 722 mmHg 75%
    21:00 +8°C° 0 mm 1 mps 721 mmHg 76%
    22:00 +8°C° 0 mm 1 mps 721 mmHg 77%
    23:00 +8°C° 0 mm 1 mps 721 mmHg 77%

    Tomorrow, 12 December, Thursday

    Time Temperature Precipitation Wind Pressure Humidity
    00:00 +8°C° 0 mm 1 mps 721 mmHg 77%
    01:00 +8°C° 0 mm 1 mps 721 mmHg 77%
    02:00 +8°C° 0 mm 1 mps 721 mmHg 76%
    03:00 +8°C° 0 mm 1 mps 721 mmHg 75%
    04:00 +8°C° 0 mm 1 mps 721 mmHg 74%
    05:00 +8°C° 0 mm 1 mps 721 mmHg 74%
    06:00 +8°C° 0 mm 1 mps 721 mmHg 71%
    07:00 +7°C° 0 mm 2 mps 721 mmHg 68%
    08:00 +7°C° 0 mm 2 mps 721 mmHg 65%
    09:00 +8°C° 0 mm 2 mps 721 mmHg 61%
    10:00 +10°C° 0 mm 2 mps 721 mmHg 56%
    11:00 +12°C° 0 mm 2 mps 722 mmHg 52%
    12:00 +12°C° 0 mm 2 mps 721 mmHg 51%
    13:00 +12°C° 0 mm 2 mps 721 mmHg 51%
    14:00 +13°C° 0 mm 2 mps 720 mmHg 50%
    15:00 +12°C° 0 mm 2 mps 721 mmHg 56%
    16:00 +11°C° 0 mm 1 mps 721 mmHg 62%
    17:00 +10°C° 0 mm 1 mps 721 mmHg 68%
    18:00 +9°C° 0.3 mm 2 mps 721 mmHg 70%
    19:00 +9°C° 0.3 mm 2 mps 721 mmHg 73%
    20:00 +8°C° 0.3 mm 2 mps 722 mmHg 75%
    21:00 +8°C° 0.2 mm 3 mps 722 mmHg 76%
    22:00 +8°C° 0.2 mm 3 mps 721 mmHg 77%
    23:00 +7°C° 0.2 mm 3 mps 721 mmHg 78%

    Day after tomorrow, 13 December, Friday

    Time Temperature Precipitation Wind Pressure Humidity
    00:00 +7°C° 0.6 mm 3 mps 721 mmHg 81%
    01:00 +5°C° 0.6 mm 3 mps 721 mmHg 85%
    02:00 +6°C° 0.6 mm 2 mps 721 mmHg 89%
    03:00 +5°C° 1.1 mm 3 mps 721 mmHg 88%
    04:00 +5°C° 1.1 mm 3 mps 721 mmHg 87%
    05:00 +5°C° 1.1 mm 3 mps 721 mmHg 85%
    06:00 +5°C° 0.2 mm 3 mps 721 mmHg 84%
    07:00 +5°C° 0.2 mm 3 mps 721 mmHg 83%
    08:00 +5°C° 0.2 mm 2 mps 721 mmHg 82%
    09:00 +5°C° 0.1 mm 3 mps 721 mmHg 79%
    10:00 +5°C° 0.1 mm 4 mps 721 mmHg 77%
    11:00 +6°C° 0.1 mm 5 mps 721 mmHg 74%
    12:00 +6°C° 0.1 mm 5 mps 720 mmHg 69%
    13:00 +7°C° 0.1 mm 6 mps 720 mmHg 64%
    14:00 +7°C° 0.1 mm 6 mps 720 mmHg 59%
    15:00 +7°C° 0.1 mm 5 mps 720 mmHg 61%
    16:00 +6°C° 0.1 mm 4 mps 720 mmHg 63%
    17:00 +6°C° 0.1 mm 4 mps 720 mmHg 66%
    18:00 +5°C° 0.3 mm 4 mps 721 mmHg 72%
    19:00 +5°C° 0.3 mm 4 mps 721 mmHg 79%
    20:00 +4°C° 0.3 mm 4 mps 721 mmHg 86%
    21:00 +4°C° 0.5 mm 3 mps 721 mmHg 87%
    22:00 +3°C° 0.5 mm 3 mps 721 mmHg 89%
    23:00 +3°C° 0.5 mm 3 mps 721 mmHg 91%

    14 December, Saturday

    Time Temperature Precipitation Wind Pressure Humidity
    00:00 +2°C° 0.7 mm 3 mps 722 mmHg 92%
    01:00 +2°C° 0.7 mm 3 mps 722 mmHg 93%
    02:00 +1°C° 0.7 mm 3 mps 722 mmHg 95%
    03:00 +1°C° 0.8 mm 3 mps 722 mmHg 95%
    04:00 +1°C° 0.8 mm 2 mps 723 mmHg 95%
    05:00 +1°C° 0.8 mm 2 mps 723 mmHg 95%
    06:00 +2°C° 0.2 mm 1 mps 724 mmHg 93%
    07:00 +2°C° 0.2 mm 1 mps 725 mmHg 90%
    08:00 +1°C° 0.2 mm 1 mps 725 mmHg 88%
    09:00 +2°C° 0 mm 1 mps 726 mmHg 81%
    10:00 +3°C° 0 mm 1 mps 727 mmHg 74%
    11:00 +3°C° 0 mm 1 mps 727 mmHg 67%
    12:00 +4°C° 0 mm 1 mps 727 mmHg 62%
    13:00 +5°C° 0 mm 1 mps 728 mmHg 56%
    14:00 +5°C° 0 mm 1 mps 728 mmHg 51%
    15:00 +5°C° 0 mm 1 mps 728 mmHg 53%
    16:00 +4°C° 0 mm 1 mps 728 mmHg 56%
    17:00 +3°C° 0 mm 1 mps 729 mmHg 59%
    18:00 +2°C° 0 mm 1 mps 729 mmHg 63%
    19:00 +2°C° 0 mm 1 mps 729 mmHg 66%
    20:00 -1°C° 0 mm 2 mps 729 mmHg 70%
    21:00 -1°C° 0 mm 2 mps 729 mmHg 68%
    22:00 -2°C° 0 mm 2 mps 729 mmHg 65%
    23:00 -2°C° 0 mm 2 mps 729 mmHg 63%

    15 December, Sunday

    Time Temperature Precipitation Wind Pressure Humidity
    00:00 -2°C° 0 mm 2 mps 729 mmHg 61%
    01:00 -2°C° 0 mm 2 mps 729 mmHg 58%
    02:00 -2°C° 0 mm 2 mps 729 mmHg 55%
    03:00 -2°C° 0 mm 2 mps 729 mmHg 54%
    04:00 -2°C° 0 mm 2 mps 729 mmHg 53%
    05:00 -2°C° 0 mm 2 mps 729 mmHg 52%
    06:00 0°C° 0 mm 1 mps 729 mmHg 51%
    07:00 0°C° 0 mm 1 mps 729 mmHg 51%
    08:00 0°C° 0 mm 1 mps 729 mmHg 51%
    09:00 +2°C° 0 mm 1 mps 729 mmHg 48%
    10:00 +3°C° 0 mm 1 mps 729 mmHg 45%
    11:00 +4°C° 0 mm 1 mps 729 mmHg 43%
    12:00 +5°C° 0 mm 1 mps 729 mmHg 41%
    13:00 +5°C° 0 mm 0 mps 729 mmHg 40%
    14:00 +5°C° 0 mm 0 mps 728 mmHg 39%
    15:00 +5°C° 0 mm 1 mps 728 mmHg 43%
    16:00 +4°C° 0 mm 1 mps 728 mmHg 47%
    17:00 +3°C° 0 mm 1 mps 728 mmHg 51%
    18:00 +1°C° 0 mm 2 mps 728 mmHg 50%
    19:00 +1°C° 0 mm 2 mps 728 mmHg 50%
    20:00 -1°C° 0 mm 2 mps 729 mmHg 49%
    21:00 -1°C° 0 mm 2 mps 729 mmHg 47%
    22:00 -1°C° 0 mm 2 mps 728 mmHg 45%
    23:00 -1°C° 0 mm 2 mps 728 mmHg 43%

    16 December, Monday

    Time Temperature Precipitation Wind Pressure Humidity
    00:00 -1°C° 0 mm 2 mps 728 mmHg 43%
    01:00 -1°C° 0 mm 2 mps 728 mmHg 42%
    02:00 -1°C° 0 mm 2 mps 728 mmHg 41%
    03:00 -1°C° 0 mm 2 mps 728 mmHg 41%
    04:00 -1°C° 0 mm 2 mps 728 mmHg 41%
    05:00 -1°C° 0 mm 2 mps 728 mmHg 40%
    06:00 -1°C° 0 mm 2 mps 728 mmHg 40%
    07:00 -1°C° 0 mm 2 mps 728 mmHg 40%
    08:00 -1°C° 0 mm 2 mps 728 mmHg 40%
    09:00 +1°C° 0 mm 2 mps 729 mmHg 38%
    10:00 +3°C° 0 mm 2 mps 729 mmHg 35%
    11:00 +5°C° 0 mm 2 mps 729 mmHg 33%
    12:00 +7°C° 0 mm 1 mps 729 mmHg 33%
    13:00 +7°C° 0 mm 1 mps 729 mmHg 32%
    14:00 +8°C° 0 mm 1 mps 728 mmHg 32%
    15:00 +7°C° 0 mm 1 mps 729 mmHg 37%
    16:00 +5°C° 0 mm 1 mps 729 mmHg 42%
    17:00 +3°C° 0 mm 2 mps 729 mmHg 46%
    18:00 +2°C° 0 mm 2 mps 729 mmHg 46%
    19:00 +2°C° 0 mm 2 mps 729 mmHg 45%
    20:00 +1°C° 0 mm 2 mps 729 mmHg 44%
    21:00 +1°C° 0 mm 2 mps 729 mmHg 43%
    22:00 +1°C° 0 mm 2 mps 729 mmHg 41%
    23:00 +1°C° 0 mm 2 mps 729 mmHg 39%
    Show more